Regional Weather Roundup
Issued by NWS

Home | Current Version | Previous Version | Graphics & Text | Print | Product List | Glossary On
Versions: 1 2 3 4 5 6 7 8 9 10 11 12 13 14 15 16 17 18 19 20 21 22 23 24 25 26 27 28 29 30 31 32 33 34 35 36 37 38 39 40 41 42 43 44 45 46 47 48 49 50
920
ASUS45 KPSR 221910
RWRAZ

ARIZONA HOURLY REGIONAL WEATHER ROUNDUP
NATIONAL WEATHER SERVICE PHOENIX AZ
1200 PM MST THU JUN 22 2017

NOTE: FAIR INDICATES FEW OR NO CLOUDS BELOW 12,000 FEET WITH NO
SIGNIFICANT WEATHER AND/OR OBSTRUCTIONS TO VISIBILITY.

AZZ001>003-036-222000-
NORTHWEST ARIZONA

CITY           SKY/WX    TMP DP  RH WIND       PRES   REMARKS
BULLHEAD CITY  SUNNY    109  32   7 S13       29.67F HX 102
KINGMAN        SUNNY    103  33   9 S17G26    29.92R
$$

AZZ004>008-015-016-018-222000-
NORTH CENTRAL ARIZONA

CITY           SKY/WX    TMP DP  RH WIND       PRES   REMARKS
GRAND CANYON   SUNNY     94  19   6 SW24G39   30.15F
PRESCOTT       SUNNY     96  27   8 SW13G22   30.06R
FLAGSTAFF      SUNNY     88  27  11 W17G28    30.19F
PAYSON         SUNNY     97  36  11 W13       30.09F
PAGE           SUNNY    103  21   5 VRB7      29.90F
$$

AZZ009>014-017-222000-
NORTHEAST ARIZONA

CITY           SKY/WX    TMP DP  RH WIND       PRES   REMARKS
WINSLOW        SUNNY    103  26   6 N8        29.98R
SAINT JOHNS    SUNNY     98  26   7 NW21G29   30.05F
WINDOW ROCK    SUNNY     94  28   9 MISG      30.14F
SHOW LOW       SUNNY     91  27   9 W16       30.14F
$$

AZZ540-542>544-546-548-222000-
GREATER PHOENIX AREA

CITY           SKY/WX    TMP DP  RH WIND       PRES   REMARKS
PHOENIX        SUNNY    103  50  17 NW6       29.74F HX 100
BUCKEYE          N/A    104  48  15 W8        29.75F HX 100
GLENDALE       SUNNY    104  52  17 S9G17     29.76F HX 101
LUKE AFB       SUNNY    104  53  18 S13       29.74S HX 102
DEER VALLEY    SUNNY    102  48  16 SW8       29.77F
SCOTTSDALE     SUNNY    102  47  15 SW12      29.79F
MESA-GATEWAY   SUNNY    102  48  16 NW7       29.77
CHANDLER       SUNNY    104  46  14 VRB6      29.76F HX 100
$$

AZZ539-553-222000-
SOUTHWEST MARICOPA COUNTY AND PINAL COUNTY

CITY           SKY/WX    TMP DP  RH WIND       PRES   REMARKS
CASA GRANDE    SUNNY    105  49  15 W13       29.78F HX 102
GILA BEND      SUNNY    107  50  15 SW5       29.73F HX 104
$$

AZZ503-504-507>509-222000-
SOUTHEAST ARIZONA

CITY           SKY/WX    TMP DP  RH WIND       PRES   REMARKS
TUCSON         MOSUNNY  103  53  19 W9G16     29.88S HX 101
DAVIS-MONTHAN  MOSUNNY  101  54  20 W9        29.86F
RYAN FIELD     SUNNY    102  54  19 SW5G16    29.86F HX 100
NOGALES        MOSUNNY   97  53  22 W9        29.98F
SIERRA VISTA   SUNNY     98  41  14 NW9       30.04F
DOUGLAS        SUNNY    100  42  13 W10G20    29.96F
SAFFORD        SUNNY    106  41  11 NW20G26   29.83F HX 100
$$

AZZ532-222000-
SOUTHWEST ARIZONA

CITY           SKY/WX    TMP DP  RH WIND       PRES   REMARKS
YUMA           SUNNY    102  61  25 S18       29.71S HX 103
$$

CAZ041-043-047-048-061-525>527-560>570-222000-
SOUTHERN CALIFORNIA

CITY           SKY/WX    TMP DP  RH WIND       PRES   REMARKS
DOWNTOWN L.A.  NOT AVBL
L.A. AIRPORT   MOSUNNY   71  61  70 S7        29.85R
SAN DIEGO      PTSUNNY   67  60  78 S8        29.87S
BURBANK        SUNNY     77  60  55 VRB7      29.83S
ONTARIO        SUNNY     83  60  45 W12       29.83S
RIVERSIDE      SUNNY     83  63  50 W8        29.82S
PALM SPRINGS   SUNNY    100  57  23 VRB5      29.73F
EL CENTRO NAS  SUNNY     98  69  38 SE7       29.70S HX 104
IMPERIAL       SUNNY     99  71  40 VRB6      29.68S HX 107
BLYTHE         SUNNY    106  59  21 S13       29.69F HX 106
$$

NVZ020-UTZ003-222000-
SOUTHERN NEVADA-UTAH

CITY           SKY/WX    TMP DP  RH WIND       PRES   REMARKS
LAS VEGAS      MOSUNNY  106  18   4 CALM      29.77F
SALT LAKE CITY SUNNY     83  33  16 N14G20    30.05S
$$

NMZ009-TXZ055-222000-
NEW MEXICO-WEST TEXAS

CITY           SKY/WX    TMP DP  RH WIND       PRES   REMARKS
ALBUQUERQUE    MOSUNNY   94  37  13 NE3       30.00F
EL PASO        MOSUNNY  102  43  13 VRB6G20   29.85F
$$


........................KEY........................
SKY/WX - SKY CONDITION/WEATHER
TMP    - TEMPERATURE IN FAHRENHEIT
DP     - DEW POINT IN FAHRENHEIT
RH     - RELATIVE HUMIDITY IN PERCENT
WIND   - DIRECTION AND SPEED IN MILES PER HOUR (MPH)
VRB    - VARIABLE WIND DIRECTION
PRES   - MEAN SEA LEVEL PRESSURE IN INCHES OF MERCURY
         F - FALLING PRESSURE   R - RISING PRESSURE
         S - STEADY PRESSURE
VSB    - VISIBILITY IN MILES
HX     - HEAT INDEX IN FAHRENHEIT
WCI    - WIND CHILL INDEX IN FAHRENHEIT
TC     - TEMPERATURE IN CELSIUS WHICH IS ALSO KNOWN AS
         TEMPERATURE IN CENTIGRADE
AFB    - AIR FORCE BASE
         LUKE AFB IS LUKE AIR FORCE BASE
         DAVIS-MONTHAN IS DAVIS-MONTHAN AIR FORCE BASE
NAS    - NAVAL AIR STATION
         EL CENTRO NAS IS EL CENTRO NAVAL AIR STATION
N/A    - NOT AVAILABLE





USA.gov is the U.S. government's official web portal to all federal, state and local government web resources and services.